Regional Weather Roundup
Issued by NWS

Home | Current Version | Previous Version | Text Only | Print | Product List | Glossary Off
Versions: 1 2 3 4 5 6 7 8 9 10 11 12 13 14 15 16 17 18 19 20 21 22 23 24 25 26 27 28 29 30 31 32 33 34 35 36 37 38 39 40 41 42 43 44 45 46 47 48 49 50

576
ASUS43 KMPX 030501
RWRMN
WEATHER ROUNDUP FOR MINNESOTA
NATIONAL WEATHER SERVICE TWIN CITIES/CHANHASSEN MN
1100 PM CST FRI DEC 02 2016


NOTE: "FAIR" INDICATES FEW OR NO CLOUDS BELOW 12,000 FEET WITH NO
SIGNIFICANT WEATHER AND/OR OBSTRUCTIONS TO VISIBILITY. N/A MEANS
CURRENT SKY AND/OR WEATHER CONDITIONS ARE NOT AVAILABLE.

MNZ060>063-068>070-030600-
   Twin Cities Metro

CITY           SKY/WX    TMP DP  RH WIND       PRES   REMARKS
TWIN CITIES    CLOUDY    30  23  75 SW8       30.31R WCI  22
ST PAUL        CLOUDY    31  25  78 SW8       30.32R WCI  23
CRYSTAL        CLOUDY    30  22  72 NW3       30.29S
BLAINE         CLOUDY    30  27  86 CALM      30.30R
LAKEVILLE      CLOUDY    28  23  80 W6        30.30S WCI  22
EDEN PRAIRIE   CLOUDY    30  23  75 SW7       30.29S WCI  23
SOUTH ST PAUL  CLOUDY    31  24  74 SW7       30.30S WCI  24
LAKE ELMO      CLOUDY    32  27  80 CALM      30.30S
$$
MNZ001>005-007-008-013>017-022>024-027-028-030600-
   Northwest Minnesota

CITY           SKY/WX    TMP DP  RH WIND       PRES   REMARKS
BEMIDJI        CLOUDY    24  19  80 CALM      30.24S
HALLOCK        CLOUDY    28  27  93 SE6       30.23F WCI  22
ROSEAU         CLOUDY    27  21  80 CALM      30.25R
WARROAD        CLOUDY    25  19  80 NW6       30.24S WCI  18
CROOKSTON      CLOUDY    28  21  74 S6        30.27S WCI  22
FOSSTON        CLOUDY    25  18  74 CALM      30.25S
DETROIT LAKES  CLOUDY    28  21  74 CALM      30.27S
MOORHEAD       CLOUDY    27  19  74 SW6       30.30S WCI  20
PARK RAPIDS    CLOUDY    25  16  68 CALM      30.25S
$$
MNZ006-009>011-018-025>026-030600-
   North Central Minnesota

CITY           SKY/WX    TMP DP  RH WIND       PRES   REMARKS
BAUDETTE       CLOUDY    24  20  84 W5        30.24S WCI  18
FLAG ISLAND    CLOUDY    23  19  86 NW3       30.23S
WASKISH        CLOUDY    27  23  86 W3        30.25R
BIG FORK       CLOUDY    25  19  80 W5        30.25S WCI  19
LONGVILLE      CLOUDY    25  19  80 W6        30.26S WCI  18
CRANE LAKE     CLOUDY    21  19  93 CALM      30.28R
COOK           CLOUDY    21  21 100 W5        30.25R WCI  15
$$
MNZ012-019>021-037-030600-
   Northeast Minnesota

CITY           SKY/WX    TMP DP  RH WIND       PRES   REMARKS
ELY            CLOUDY    25  25 100 W5        30.22S WCI  19
HIBBING        CLOUDY    24  22  91 NW8       30.24R WCI  15
EVELETH        CLOUDY    25  22  87 W8        30.24S WCI  17
DULUTH HARBOR  CLOUDY    32  27  80 CALM      30.28S
TWO HARBORS    CLOUDY    32  27  80 CALM      30.22R
GRAND MARAIS     N/A     32  25  75 VRB5      30.24S WCI  27
G MARAIS ARPRT CLOUDY    25  19  80 NW3       30.19S
$$
MNZ029>031-032-039>041-046>048-054>057-064-030600-
   West Central Minnesota

CITY           SKY/WX    TMP DP  RH WIND       PRES   REMARKS
FERGUS FALLS   CLOUDY    25  18  74 CALM      30.33S
WHEATON        CLOUDY   N/A N/A N/A CALM      30.32F
MORRIS         CLOUDY    27  21  80 N3        30.29S
ALEXANDRIA     CLOUDY    25  20  81 NW6       30.28F WCI  18
ELBOW LAKE     CLOUDY    25  19  77 CALM      30.29F
WADENA         CLOUDY    25  19  80 SW6       30.27S WCI  18
GLENWOOD       CLOUDY    25  19  80 W7        30.29S WCI  17
APPLETON       CLOUDY    28  19  69 NW3       30.30F
BENSON         CLOUDY    27  19  74 NW5       30.31S WCI  21
ORTONVILLE     CLOUDY    27  18  69 CALM      30.30S
MADISON        CLOUDY    30  21  69 NW5       30.30F WCI  25
WILLMAR        CLOUDY    28  21  74 NW7       30.31S WCI  21
$$
MNZ033>034-036-042>043-049>051-058-059-030600-
   Central Minnesota

CITY           SKY/WX    TMP DP  RH WIND       PRES   REMARKS
ST CLOUD       CLOUDY    28  23  81 N3        30.29R
PAYNESVILLE    CLOUDY    28  23  82 W8        30.30R WCI  19
AITKIN         CLOUDY    28  21  74 CALM      30.26R
PINE RIVER     CLOUDY    25  19  80 CALM      30.29S
BRAINERD       CLOUDY    26  21  81 W7        30.28R WCI  18
STAPLES        CLOUDY    25  19  80 SW5       30.28S WCI  19
LONG PRAIRIE   CLOUDY    27  21  80 CALM      30.28S
LITTLE FALLS   CLOUDY    28  23  80 W3        30.28S
LITCHFIELD     CLOUDY    28  21  74 CALM      30.30S
BUFFALO        CLOUDY    29  25  83 W3        30.31S
MAPLE LAKE     CLOUDY    29  28  93 W3        30.31R
$$
MNZ037-044-045-052-053-030600-
   East Central Minnesota

CITY           SKY/WX    TMP DP  RH WIND       PRES   REMARKS
PRINCETON      CLOUDY    28  25  86 CALM      30.29S
MORA           CLOUDY    28  23  80 W5        30.30R WCI  23
CAMBRIDGE      CLOUDY    30  21  69 NW3       30.28R
RUSH CITY      CLOUDY    28  23  80 CALM      30.29R
MOOSE LAKE     CLOUDY    28  23  80 NW6       30.25S WCI  22
HINCKLEY       CLOUDY    30  27  86 W3        30.28R
CLOQUET        CLOUDY    27  21  80 W7        30.24S WCI  19
MCGREGOR       CLOUDY    28  23  80 W5        30.27S WCI  23
$$
MNZ071>073-080-081-089-090-097-098-030600-
   Southwest Minnesota

CITY           SKY/WX    TMP DP  RH WIND       PRES   REMARKS
MONTEVIDEO     CLOUDY    27  25  93 NE3       30.32S
GRANITE FALLS  CLOUDY    30  25  83 CALM      30.33S
CANBY          CLOUDY    28  24  82 CALM      30.32S
REDWOOD FALLS  CLOUDY    29  21  72 CALM      30.31S
OLIVIA         CLOUDY    30  23  74 NW3       30.30S
PIPESTONE      CLOUDY    27  21  80 NW3       30.28S
WINDOM         CLOUDY    28  21  74 CALM      30.30S
JACKSON        CLOUDY    28  21  74 NW3       30.30S
TRACY          CLOUDY    29  22  76 NW7       30.30S WCI  22
SLAYTON        CLOUDY    26  20  79 W7        30.30R WCI  18
$$
MNZ065>067-074>077-082>085-091>093-030600-
   South Central Minnesota

CITY           SKY/WX    TMP DP  RH WIND       PRES   REMARKS
NEW ULM        CLOUDY    28  21  74 NW3       30.31S
ST JAMES       CLOUDY    28  25  86 CALM      30.32S
GLENCOE        CLOUDY    30  24  80 NW3       30.30S
FARIBAULT      CLOUDY    28  21  74 W8        30.31S WCI  20
OWATONNA       CLOUDY    28  21  74 NW7       30.31S WCI  21
WASECA         CLOUDY    30  25  80 W6        30.32S WCI  24
ALBERT LEA     CLOUDY    32  27  80 CALM      30.31R
$$
MNZ078>079-086>088-094>096-030600-
   Southeast Minnesota

CITY           SKY/WX    TMP DP  RH WIND       PRES   REMARKS
ROCHESTER      CLOUDY    28  22  78 NW8       30.30S WCI  20
RED WING       CLOUDY    30  21  69 W6        30.30S WCI  24
STANTON        CLOUDY    31  23  73 SW6       30.30S WCI  25
DODGE CENTER   CLOUDY    27  21  80 W7        30.29F WCI  19
WINONA         CLOUDY    32  23  69 NW6       30.33S WCI  26
AUSTIN         CLOUDY    28  21  74 NW6       30.31S WCI  22
PRESTON        CLOUDY    27  22  79 W3        30.31S
$$
ABBREVIATIONS USED IN REMARKS
   TC - TEMPERATURES IN CELSIUS
  WCI - WIND CHILL INDEX
   HX - HEAT INDEX
  VSB - VISIBILITY
$$




USA.gov is the U.S. government's official web portal to all federal, state and local government web resources and services.